Regional Weather Roundup
Issued by NWS

Home | Current Version | Previous Version | Graphics & Text | Print | Product List | Glossary On
Versions: 1 2 3 4 5 6 7 8 9 10 11 12 13 14 15 16 17 18 19 20 21 22 23 24 25 26 27
000
ASUS45 KCYS 161710
RWRWY

WYOMING REGIONAL WEATHER ROUNDUP
NATIONAL WEATHER SERVICE CHEYENNE WY
1000 AM MST SAT DEC 16 2017

NOTE:  "FAIR" INDICATES FEW OR NO CLOUDS BELOW 12,000 FEET
WITH NO SIGNIFICANT WEATHER AND/OR OBSTRUCTIONS TO VISIBILITY.

WYZ001-161800-
YELLOWSTONE NATIONAL PARK

CITY           SKY/WX    TMP DP  RH WIND       PRES   REMARKS
LK YELLOWSTONE   N/A     22  19  89 CALM      29.85S
W YELLOWSTONE  NOT AVBL

$$
WYZ002>013-054>058-071-098>099-161800-
NORTHERN WYOMING

CITY           SKY/WX    TMP DP  RH WIND       PRES   REMARKS
JACKSON        CLOUDY    26  22  84 NE9       29.85S FOG     WCI  17
CODY           LGT SNOW  33  30  88 N3        29.89R VSB 1
GREYBULL       LGT SNOW  30  30 100 E6        29.89S FOG     WCI  24
WORLAND        LGT SNOW  33  32  96 CALM      29.89R FOG
SHERIDAN       LGT SNOW  31  30  96 NE9       29.96R VSB 1   WCI  23
BUFFALO        LGT SNOW  33  28  81 N6        29.93R VSB 3/4 WCI  28
GILLETTE       LGT SNOW  30  28  92 N6        29.94R VSB 3/4 WCI  24
HULETT         CLOUDY    32  28  86 N5        29.97R WCI  27
NEWCASTLE      LGT SNOW  32  28  86 NW5       29.93R WCI  27

$$
WYZ014>020-022>026-101>103-161800-
CENTRAL WYOMING

CITY           SKY/WX    TMP DP  RH WIND       PRES   REMARKS
BIG PINEY      LGT SNOW  27  25  92 CALM      29.83S FOG
PINEDALE       LGT SNOW  28  27  93 CALM      29.84R
DUBOIS         SNOW      27  23  86 SE5       29.82R VSB 1/2 WCI  21
LANDER         CLOUDY    30  28  92 NW9       29.83S FOG     WCI  22
RIVERTON       SNOW      25  23  92 E7        29.84S VSB 1/2 WCI  17
CASPER         LGT SNOW  30  28  92 NE14      29.88S FOG     WCI  19
DOUGLAS        LGT SNOW  34  27  75 N5        29.91R WCI  30

$$
WYZ021-027>030-104>119-161800-
SOUTHERN WYOMING

CITY           SKY/WX    TMP DP  RH WIND       PRES   REMARKS
EVANSTON       NOT AVBL
FORT BRIDGER   CLOUDY    31  25  79 CALM      29.87R
ROCK SPRINGS   PTSUNNY   30  20  66 S5        29.83S WCI  25
DIXON          FAIR      28  15  58 E5        29.86S WCI  22
RAWLINS        CLOUDY    32  18  56 CALM      29.84R
SARATOGA       CLOUDY    30  18  59 W5        29.85R WCI  25
LARAMIE        PTSUNNY   27  19  72 NW7       29.85R WCI  19
CHEYENNE       FAIR      34  17  50 N12       29.87R WCI  25
TORRINGTON     FAIR      39  20  46 N10       29.88R WCI  32
PINE BLUFFS    FAIR      39  14  35 MISG      29.86R

$$




USA.gov is the U.S. government's official web portal to all federal, state and local government web resources and services.